Temp
67 67 66 66 66 65 64 64 65 65 65 64 63 65 64 66 67 65 64 65 64 65 64 64 64 63 63 64 64 64 64 66 68 68 68 67 67 66 65 65 66 65
67 66 66 66 66 65 65 64 64 65 64 62 63 64 65 65 64 65 64 63 64 64 64 63 62 62 63 63 64 64 64 65 66 67 66 67 67 66 65 65 66 67
66 65 64 63 63 62 63 64 64 64 64 62 62 62 63 64 63 63 63 62 62 61 61 60 60 61 61 63 64 65 64 64 64 65 66 66 66 66 66 65 65 66
64 64 64 63 63 63 63 64 64 63 61 61 60 62 63 62 62 61 61 60 60 60 60 60 60 60 61 62 63 63 64 64 64 65 65 66 67 66 66 65 65 66
61 61 63 63 63 63 64 63 61 60 60 60 60 61 61 60 60 60 59 59 59 59 59 59 60 60 61 61 63 63 63 63 64 65 64 64 64 64 65 65 65 64
62 62 63 63 63 63 62 61 59 59 59 59 59 60 60 60 60 59 58 58 59 58 58 59 59 60 60 61 63 64 64 64 64 64 64 63 64 64 64 64 64 64
61 61 61 62 61 61 60 59 58 58 59 59 60 58 59 59 59 58 59 58 59 58 59 59 59 59 61 61 62 62 63 63 63 63 62 61 62 62 63 63 63 62
61 61 61 61 60 59 57 57 58 57 58 59 57 58 58 58 58 58 58 59 59 58 58 59 60 60 60 60 59 59 59 59 59 59 60 60 60 60 61 61 61 60
59 59 59 58 57 57 56 57 57 57 58 57 56 57 58 58 57 58 58 59 60 58 59 59 59 60 60 59 58 58 58 58 58 59 58 58 57 58 59 60 60 60
58 57 56 56 55 56 55 56 56 56 57 57 57 57 57 57 58 59 59 60 61 60 61 60 60 61 61 60 59 58 57 57 58 58 58 58 57 58 58 58 58 57
55 56 55 55 55 55 54 55 55 55 56 57 57 57 57 57 57 59 60 60 58 60 60 58 58 60 60 59 59 59 59 58 58 59 59 59 58 58 58 57 57 56
55 55 54 54 54 53 53 54 54 55 55 56 57 57 57 57 57 57 58 59 59 59 58 58 57 57 59 59 59 59 59 59 59 59 59 60 59 58 58 58 57 57
54 54 53 52 53 53 53 53 54 54 55 55 56 56 56 56 57 58 58 58 58 57 57 57 56 56 56 58 59 60 59 58 58 59 60 60 59 59 59 59 58 57
53 53 53 53 53 53 53 53 54 54 54 55 55 54 54 56 56 57 57 57 57 57 56 57 57 55 56 58 59 58 58 58 58 58 58 59 58 59 60 60 59 58
52 53 54 54 54 53 53 53 53 53 54 54 54 54 54 56 58 58 57 58 57 55 56 55 54 53 52 53 56 58 58 57 56 57 57 57 58 58 59 59 60 59
53 53 54 54 54 54 53 53 54 54 54 54 54 55 56 57 57 56 56 55 55 56 55 53 52 52 47 44 46 55 58 57 57 56 56 56 56 57 57 58 58 58
53 54 55 54 54 54 54 54 54 54 55 55 54 54 55 55 55 55 54 55 55 54 54 52 51 49 42 42 43 44 55 57 56 56 56 55 55 55 55 56 57 58
52 55 57 55 55 54 55 55 55 55 55 56 55 54 53 54 53 54 54 54 54 54 53 52 51 44 41 42 42 42 47 56 56 56 56 55 55 55 55 55 56 56
54 54 53 54 55 54 55 57 57 55 53 52 52 52 53 53 53 53 53 54 54 53 52 52 52 42 41 42 42 42 43 52 57 56 55 55 55 55 55 54 55 55
54 53 52 52 52 52 53 53 52 52 51 52 52 53 52 52 52 52 53 53 53 53 52 51 50 43 41 41 42 42 43 49 57 56 55 55 54 54 54 54 54 54
53 53 52 52 52 52 52 52 51 51 51 52 52 52 51 52 52 52 52 53 53 53 52 50 47 40 40 41 41 42 44 49 56 55 55 55 54 54 54 54 54 54
53 52 52 52 52 52 52 51 51 51 50 51 52 52 52 52 52 53 52 52 53 53 52 51 48 39 40 40 41 42 46 56 56 55 54 54 54 55 54 54 53 54
53 52 52 52 52 51 51 50 50 50 51 53 51 51 51 51 51 51 52 52 52 52 52 51 49 42 39 40 41 40 49 56 56 56 55 54 53 54 55 53 51 51
53 53 52 51 52 51 50 50 51 51 51 52 52 51 51 51 52 52 52 52 51 51 51 51 50 44 39 40 40 39 47 56 56 54 54 54 54 54 55 54 52 45
52 52 52 51 51 50 50 50 50 50 51 52 52 52 51 53 53 52 51 52 51 51 47 50 50 46 40 39 40 40 49 56 55 55 53 52 53 53 54 54 54 50
52 51 51 51 50 50 50 50 51 51 51 51 52 54 53 53 53 52 51 51 51 51 50 51 50 48 44 39 40 40 41 53 55 54 52 52 52 53 52 53 53 53
MSLP
1019.56 1019.52 1019.56 1019.68 1019.84 1019.96 1020.08 1020.16 1020.16 1020.24 1020.28 1020.28 1020.28 1020.12 1020.04 1019.92 1019.72 1019.68 1019.60 1019.40 1019.28 1019.12 1019.04 1018.96 1018.84 1018.68 1018.44 1018.16 1017.88 1017.68 1017.32 1016.96 1016.60 1016.32 1016.16 1016.00 1015.84 1015.68 1015.56 1015.36 1015.12 1014.92
1019.68 1019.68 1019.76 1019.84 1020.08 1020.20 1020.28 1020.32 1020.40 1020.36 1020.40 1020.52 1020.44 1020.28 1020.12 1020.00 1019.96 1019.84 1019.76 1019.60 1019.40 1019.36 1019.36 1019.28 1019.16 1018.92 1018.64 1018.32 1018.00 1017.72 1017.36 1017.08 1016.84 1016.52 1016.40 1016.12 1015.96 1015.68 1015.60 1015.32 1015.08 1014.76
1019.92 1020.04 1020.20 1020.36 1020.48 1020.56 1020.48 1020.44 1020.44 1020.44 1020.52 1020.68 1020.68 1020.56 1020.40 1020.24 1020.20 1020.12 1020.04 1019.92 1019.84 1019.80 1019.72 1019.64 1019.48 1019.20 1018.88 1018.52 1018.12 1017.76 1017.48 1017.20 1017.04 1016.76 1016.48 1016.24 1016.00 1015.84 1015.52 1015.32 1015.04 1014.72
1020.36 1020.40 1020.44 1020.56 1020.60 1020.60 1020.56 1020.52 1020.60 1020.72 1020.84 1020.84 1020.88 1020.72 1020.60 1020.52 1020.48 1020.44 1020.40 1020.32 1020.28 1020.12 1020.04 1019.84 1019.60 1019.32 1019.04 1018.72 1018.36 1018.00 1017.68 1017.32 1017.08 1016.84 1016.64 1016.32 1016.08 1015.84 1015.64 1015.40 1015.12 1014.84
1020.68 1020.72 1020.68 1020.68 1020.72 1020.72 1020.64 1020.80 1021.04 1021.12 1021.12 1021.12 1021.00 1020.92 1020.92 1020.92 1020.92 1020.88 1020.76 1020.64 1020.52 1020.44 1020.32 1020.00 1019.68 1019.40 1019.12 1018.80 1018.44 1018.08 1017.80 1017.52 1017.24 1016.96 1016.84 1016.68 1016.44 1016.24 1016.00 1015.68 1015.40 1015.12
1020.76 1020.80 1020.84 1020.88 1020.96 1020.96 1021.00 1021.24 1021.40 1021.36 1021.32 1021.24 1021.32 1021.28 1021.32 1021.28 1021.28 1021.20 1021.12 1020.92 1020.76 1020.68 1020.48 1020.16 1019.88 1019.60 1019.32 1019.00 1018.52 1018.12 1017.92 1017.72 1017.48 1017.28 1017.12 1017.00 1016.72 1016.52 1016.24 1016.00 1015.80 1015.52
1021.04 1021.04 1021.08 1021.20 1021.28 1021.32 1021.40 1021.56 1021.64 1021.60 1021.60 1021.56 1021.56 1021.68 1021.64 1021.60 1021.52 1021.48 1021.32 1021.16 1020.92 1020.72 1020.56 1020.36 1020.08 1019.80 1019.48 1019.16 1018.84 1018.64 1018.36 1018.20 1018.00 1017.84 1017.68 1017.48 1017.24 1017.00 1016.68 1016.36 1016.16 1015.96
1021.16 1021.20 1021.32 1021.44 1021.56 1021.64 1021.76 1021.88 1021.88 1021.96 1021.96 1021.96 1022.04 1022.08 1021.96 1021.92 1021.76 1021.68 1021.52 1021.20 1021.04 1020.96 1020.84 1020.52 1020.20 1019.96 1019.80 1019.56 1019.44 1019.28 1019.08 1018.92 1018.72 1018.52 1018.28 1018.04 1017.72 1017.48 1017.20 1016.88 1016.60 1016.40
1021.40 1021.52 1021.68 1021.80 1021.88 1022.00 1022.12 1022.16 1022.28 1022.32 1022.32 1022.36 1022.40 1022.32 1022.20 1022.12 1022.04 1021.88 1021.68 1021.44 1021.20 1021.16 1020.92 1020.72 1020.48 1020.24 1020.08 1019.96 1019.92 1019.76 1019.64 1019.48 1019.28 1019.00 1018.76 1018.56 1018.32 1018.08 1017.68 1017.36 1017.04 1016.80
1021.72 1021.92 1022.04 1022.16 1022.28 1022.40 1022.52 1022.60 1022.64 1022.72 1022.68 1022.60 1022.56 1022.56 1022.48 1022.36 1022.20 1022.00 1021.84 1021.52 1021.16 1021.20 1021.04 1021.00 1020.72 1020.48 1020.32 1020.32 1020.24 1020.20 1020.04 1019.84 1019.60 1019.40 1019.12 1018.92 1018.80 1018.56 1018.24 1017.92 1017.64 1017.36
1022.16 1022.28 1022.40 1022.52 1022.64 1022.80 1022.96 1022.96 1023.00 1023.04 1023.00 1022.88 1022.76 1022.72 1022.68 1022.56 1022.36 1022.16 1021.88 1021.72 1021.68 1021.52 1021.44 1021.48 1021.36 1021.08 1020.88 1020.80 1020.68 1020.48 1020.24 1020.12 1019.96 1019.64 1019.28 1019.12 1019.04 1018.88 1018.64 1018.36 1018.08 1017.84
1022.48 1022.56 1022.76 1022.92 1023.08 1023.24 1023.36 1023.40 1023.40 1023.36 1023.24 1023.12 1023.04 1022.96 1022.84 1022.72 1022.60 1022.48 1022.32 1022.16 1022.12 1022.08 1022.00 1022.00 1021.96 1021.72 1021.40 1021.20 1021.00 1020.68 1020.44 1020.32 1020.16 1019.80 1019.60 1019.36 1019.20 1019.12 1018.92 1018.64 1018.44 1018.20
1022.80 1022.96 1023.20 1023.40 1023.52 1023.64 1023.72 1023.72 1023.68 1023.60 1023.44 1023.44 1023.32 1023.24 1023.12 1022.96 1022.84 1022.72 1022.68 1022.64 1022.60 1022.60 1022.48 1022.40 1022.32 1022.24 1021.96 1021.52 1021.20 1020.92 1020.80 1020.72 1020.52 1020.12 1019.80 1019.56 1019.52 1019.40 1019.12 1018.84 1018.64 1018.48
1023.24 1023.40 1023.56 1023.68 1023.80 1023.92 1023.96 1023.92 1023.84 1023.84 1023.80 1023.72 1023.68 1023.64 1023.52 1023.36 1023.20 1023.00 1023.04 1023.08 1023.04 1022.92 1022.92 1022.84 1022.72 1022.64 1022.40 1021.88 1021.56 1021.44 1021.28 1021.16 1020.92 1020.64 1020.32 1020.08 1019.96 1019.76 1019.40 1019.08 1018.92 1018.80
1023.60 1023.72 1023.72 1023.80 1023.96 1024.04 1024.16 1024.20 1024.16 1024.16 1024.12 1024.12 1024.08 1024.04 1023.88 1023.68 1023.44 1023.36 1023.44 1023.24 1023.28 1023.32 1023.28 1023.28 1023.16 1023.16 1023.16 1022.96 1022.20 1021.80 1021.64 1021.44 1021.32 1021.08 1020.80 1020.56 1020.28 1020.00 1019.76 1019.48 1019.20 1019.08
1023.76 1023.88 1023.88 1023.96 1024.08 1024.20 1024.28 1024.36 1024.36 1024.36 1024.36 1024.36 1024.28 1024.20 1024.08 1023.88 1023.84 1023.88 1023.76 1023.72 1023.60 1023.56 1023.60 1023.60 1023.68 1023.80 1024.04 1023.68 1023.16 1022.40 1021.92 1021.76 1021.60 1021.44 1021.24 1021.00 1020.76 1020.48 1020.20 1019.96 1019.72 1019.48
1023.92 1023.96 1023.96 1024.08 1024.28 1024.32 1024.44 1024.52 1024.56 1024.52 1024.44 1024.48 1024.56 1024.48 1024.36 1024.32 1024.28 1024.16 1024.12 1024.04 1023.96 1023.96 1023.96 1024.08 1024.32 1024.56 1024.48 1024.00 1023.52 1023.00 1022.32 1022.08 1021.92 1021.84 1021.68 1021.48 1021.28 1021.08 1020.88 1020.56 1020.20 1019.92
1024.16 1024.12 1023.88 1024.20 1024.28 1024.56 1024.64 1024.68 1024.64 1024.60 1024.60 1024.60 1024.64 1024.76 1024.80 1024.72 1024.60 1024.52 1024.48 1024.40 1024.36 1024.32 1024.36 1024.52 1024.76 1025.08 1024.68 1024.28 1023.88 1023.44 1022.88 1022.44 1022.28 1022.16 1022.08 1021.92 1021.84 1021.64 1021.44 1021.12 1020.76 1020.40
1024.20 1024.28 1024.44 1024.52 1024.60 1024.80 1024.88 1024.72 1024.60 1024.88 1025.08 1025.20 1025.28 1025.24 1025.12 1024.96 1025.00 1024.88 1024.80 1024.76 1024.72 1024.72 1024.84 1024.96 1025.04 1025.36 1024.92 1024.52 1024.16 1023.76 1023.32 1022.76 1022.60 1022.60 1022.48 1022.44 1022.32 1022.20 1021.96 1021.72 1021.36 1021.00
1024.40 1024.48 1024.64 1024.88 1025.00 1025.16 1025.20 1025.28 1025.36 1025.40 1025.56 1025.56 1025.52 1025.44 1025.32 1025.32 1025.32 1025.24 1025.16 1025.12 1025.12 1025.12 1025.28 1025.40 1025.56 1025.72 1025.24 1024.84 1024.44 1024.08 1023.68 1023.16 1023.04 1023.00 1022.96 1022.88 1022.80 1022.64 1022.40 1022.20 1021.92 1021.64
1024.60 1024.72 1024.88 1025.08 1025.24 1025.32 1025.36 1025.48 1025.64 1025.80 1025.84 1025.84 1025.76 1025.72 1025.68 1025.64 1025.60 1025.60 1025.64 1025.56 1025.48 1025.44 1025.52 1025.76 1026.16 1026.16 1025.60 1025.16 1024.76 1024.32 1023.96 1023.48 1023.36 1023.32 1023.24 1023.20 1023.12 1023.00 1022.88 1022.68 1022.48 1022.20
1024.80 1025.00 1025.16 1025.28 1025.40 1025.48 1025.56 1025.76 1025.92 1026.08 1026.12 1026.12 1026.04 1026.00 1026.00 1025.92 1025.96 1025.92 1026.00 1025.96 1025.84 1025.72 1025.72 1025.92 1026.36 1026.44 1026.00 1025.56 1025.08 1024.60 1024.08 1023.68 1023.64 1023.60 1023.60 1023.52 1023.44 1023.40 1023.32 1023.28 1023.08 1022.76
1025.04 1025.16 1025.32 1025.48 1025.60 1025.68 1025.88 1026.04 1026.16 1026.28 1026.32 1026.20 1026.16 1026.20 1026.24 1026.28 1026.40 1026.44 1026.36 1026.28 1026.20 1026.04 1025.96 1026.16 1026.40 1026.72 1026.40 1025.96 1025.48 1025.00 1024.28 1024.00 1023.96 1023.84 1023.84 1023.80 1023.84 1023.72 1023.64 1023.76 1023.80 1023.56
1025.32 1025.36 1025.52 1025.72 1025.80 1025.96 1026.16 1026.36 1026.40 1026.44 1026.52 1026.44 1026.32 1026.36 1026.44 1026.60 1026.60 1026.64 1026.68 1026.64 1026.60 1026.56 1026.52 1026.44 1026.68 1027.04 1026.88 1026.44 1026.00 1025.48 1024.80 1024.36 1024.24 1024.20 1024.20 1024.08 1024.08 1024.08 1023.92 1023.92 1024.16 1024.40
1025.60 1025.68 1025.76 1025.88 1026.04 1026.28 1026.40 1026.52 1026.64 1026.72 1026.80 1026.68 1026.60 1026.56 1026.68 1026.72 1026.76 1026.76 1026.84 1026.84 1026.92 1027.00 1027.08 1026.76 1026.88 1027.16 1027.24 1026.92 1026.48 1025.96 1025.24 1024.68 1024.52 1024.48 1024.52 1024.52 1024.36 1024.32 1024.28 1024.16 1024.12 1024.32
1025.92 1025.96 1026.04 1026.12 1026.32 1026.56 1026.60 1026.72 1026.80 1026.88 1026.92 1026.80 1026.80 1026.68 1026.80 1026.88 1026.92 1026.96 1027.00 1027.12 1027.20 1027.16 1027.20 1027.12 1027.16 1027.40 1027.64 1027.40 1027.00 1026.52 1025.96 1025.24 1024.96 1024.76 1024.88 1024.92 1024.88 1024.76 1024.60 1024.52 1024.44 1024.40
Wind_Speed
8 8 8 8 8 7 7 7 7 7 7 7 7 7 7 6 8 8 8 8 9 9 9 9 9 8 8 8 8 7 8 10 9 9 10 10 8 9 9 10 9 7
9 9 7 7 7 7 7 7 7 6 7 6 6 6 6 7 7 8 8 9 9 10 10 9 8 8 9 8 9 8 7 9 10 8 9 10 8 8 9 10 10 10
9 10 9 9 8 8 7 6 6 7 7 6 6 6 6 7 8 8 8 9 9 9 9 9 9 9 9 9 9 8 8 9 9 9 8 9 9 8 9 9 9 10
10 9 8 9 7 7 5 6 7 7 6 7 8 7 7 7 8 9 9 10 9 10 9 9 9 8 9 9 8 7 8 8 9 8 9 9 10 11 10 10 9 8
7 7 8 7 6 6 6 7 7 7 7 7 8 9 9 9 9 9 9 10 9 10 9 9 9 9 9 9 9 7 8 8 10 10 9 9 9 10 9 10 11 10
7 7 7 7 7 7 7 8 7 7 8 8 9 8 9 9 9 9 10 10 10 9 9 9 10 10 10 10 10 9 10 10 10 11 10 10 9 9 8 10 11 11
8 8 8 7 8 8 8 8 7 8 8 7 7 8 8 9 9 9 10 9 10 9 10 10 11 11 11 11 10 11 10 11 12 12 12 11 10 12 12 11 12 12
9 8 8 8 8 9 9 8 8 9 8 8 8 8 8 8 9 9 9 10 9 9 10 11 11 11 11 9 11 11 11 9 11 12 12 12 11 12 12 11 11 12
8 9 9 9 9 8 9 8 8 9 8 8 8 7 8 8 9 9 9 9 10 9 11 11 11 11 11 10 10 11 11 12 11 11 11 11 12 12 12 12 13 13
9 9 9 9 8 8 9 9 8 8 8 8 8 7 8 8 9 10 10 11 12 11 12 12 12 12 12 12 13 13 12 12 12 12 13 13 13 13 13 12 13 13
9 9 8 9 9 8 9 8 8 7 7 8 8 9 9 8 9 10 11 12 11 12 12 12 12 12 12 13 12 11 11 11 12 13 14 14 13 13 14 12 13 13
8 8 9 9 8 8 8 7 7 7 7 7 8 9 9 9 10 10 10 12 12 12 12 12 12 12 12 12 12 11 11 11 11 12 13 13 13 13 14 14 13 14
8 8 8 8 8 7 7 7 7 7 8 8 8 9 9 10 10 11 10 11 12 12 12 12 13 12 11 12 12 11 11 11 10 11 12 10 12 14 15 13 12 12
7 7 7 7 7 7 7 7 7 8 8 8 8 9 10 11 11 11 11 11 12 12 12 12 13 13 12 11 9 9 9 10 10 10 11 11 11 12 14 13 12 13
7 6 6 7 7 7 7 8 8 8 9 9 9 9 9 10 11 11 11 12 12 10 12 12 12 12 10 10 8 9 8 9 10 11 11 11 11 12 13 13 13 11
7 7 7 7 8 8 8 8 8 8 9 10 10 10 11 11 10 9 9 10 11 12 11 11 11 10 12 16 14 8 8 8 9 10 11 11 11 11 12 13 13 12
7 7 7 8 8 8 8 9 9 8 9 10 10 11 11 9 9 10 10 10 11 11 12 11 10 9 14 14 15 16 9 9 10 11 11 12 12 12 12 12 13 13
6 8 8 9 9 9 9 9 9 10 10 11 11 11 9 8 10 10 10 10 10 11 12 11 11 13 14 14 14 15 12 10 10 10 11 12 12 12 12 12 13 13
6 7 8 9 9 9 9 9 10 10 10 10 9 8 8 10 10 10 11 10 11 12 12 11 11 15 14 15 14 14 13 11 11 11 12 12 12 13 13 13 12 12
7 8 9 8 7 7 8 8 9 10 9 7 7 8 9 10 11 12 11 11 10 11 11 11 11 13 15 14 14 13 12 11 11 12 12 13 13 13 13 13 13 12
8 8 9 8 8 8 9 10 9 8 8 7 7 8 9 9 10 11 9 10 10 10 10 10 10 15 15 15 13 12 11 12 11 11 11 12 13 14 14 14 14 12
8 9 9 8 8 8 10 10 9 8 8 7 8 8 8 8 9 9 10 10 9 10 10 11 11 16 15 15 15 13 10 10 10 11 12 12 12 13 14 14 13 13
8 9 9 9 9 9 10 9 9 8 7 6 9 8 9 9 9 8 8 9 10 10 10 10 11 15 16 16 15 15 9 10 10 10 11 12 12 12 12 14 14 15
7 8 9 9 9 10 10 9 8 7 7 5 8 9 9 8 7 8 8 9 10 11 9 9 10 14 16 15 15 15 10 9 10 10 11 11 11 12 11 11 15 22
7 8 8 9 10 9 8 9 8 7 6 6 7 8 8 7 7 8 8 9 9 10 11 10 10 12 16 15 15 16 10 8 9 10 11 10 10 11 11 10 11 14
7 8 9 9 10 9 8 8 7 7 7 7 7 8 8 8 8 8 10 9 8 9 9 9 10 11 13 15 15 15 14 8 8 10 10 10 10 10 10 11 11 11
Wind_Direction
71 69 68 68 64 59 56 51 44 41 28 27 22 16 20 1 8 4 2 357 358 0 359 353 352 349 345 340 336 333 336 345 346 340 338 337 342 340 341 339 332 323
68 67 68 66 65 63 60 56 49 35 30 25 17 8 11 4 6 6 6 360 1 2 0 357 353 348 342 341 344 344 342 351 356 350 341 342 346 341 346 343 337 339
70 74 70 69 68 61 55 52 42 31 32 29 21 14 8 9 6 10 11 8 6 4 3 358 352 348 345 345 345 350 353 349 354 352 349 347 355 354 355 345 344 345
72 72 72 70 65 64 55 45 36 36 31 26 20 17 16 12 11 14 15 14 12 10 5 358 353 348 347 345 345 352 351 356 0 355 2 1 4 357 359 353 352 355
70 68 66 66 62 56 52 48 41 35 33 27 24 22 19 17 17 17 15 14 13 11 7 356 354 354 349 347 347 355 2 7 9 11 11 9 7 7 4 2 358 353
67 68 62 55 52 52 54 51 41 33 29 27 26 26 26 22 21 20 17 15 14 13 7 1 1 0 358 352 359 9 15 17 14 11 11 9 7 7 1 3 4 4
67 60 62 62 58 56 58 50 40 35 32 30 31 32 25 26 25 25 23 19 19 20 17 16 12 9 9 7 11 9 11 11 13 14 12 13 9 10 8 5 6 5
67 65 60 59 62 55 53 50 44 40 37 38 39 34 31 30 33 33 29 31 30 23 22 21 20 20 16 16 17 15 15 14 14 15 16 13 8 9 8 6 5 7
63 58 59 57 56 53 53 52 48 47 42 42 42 42 40 40 40 41 40 34 33 32 35 29 22 28 28 26 26 24 25 25 22 19 18 13 10 7 6 5 8 10
63 66 61 59 60 56 56 54 53 50 46 49 52 51 49 45 45 43 40 42 45 38 40 35 32 33 34 33 33 32 32 31 27 24 22 22 20 17 11 11 11 12
68 66 66 62 63 60 57 57 54 53 51 54 56 56 52 47 46 45 46 47 40 39 35 32 29 29 32 33 32 32 34 34 33 32 34 35 33 29 25 19 17 18
67 65 61 60 62 60 57 56 56 56 59 55 53 56 54 52 51 48 47 48 45 42 38 36 32 32 35 37 35 35 37 38 40 39 37 38 37 31 26 24 23 24
66 64 65 66 66 66 64 61 61 62 59 55 53 55 53 54 51 53 50 49 48 44 43 40 40 38 37 36 39 39 34 32 30 27 29 29 29 34 34 27 25 25
67 69 71 73 75 75 71 68 66 62 58 55 54 53 52 52 52 53 55 55 51 51 49 47 44 41 41 37 30 23 26 29 29 22 21 23 25 28 29 25 21 28
81 78 80 80 81 81 78 72 68 63 61 61 59 59 57 55 58 60 57 62 58 50 51 49 45 36 29 13 6 24 29 38 31 28 27 27 25 25 23 23 22 24
89 90 88 87 84 82 79 77 74 70 68 67 65 63 62 62 63 52 52 55 54 50 48 45 41 37 13 12 10 12 35 36 37 33 30 27 26 24 22 21 20 19
100 95 97 91 87 85 84 82 79 77 75 72 70 68 66 62 56 55 52 51 51 50 50 49 42 24 10 18 17 8 23 42 41 38 34 32 30 27 22 17 18 18
99 105 105 97 94 89 88 86 86 84 80 76 76 74 69 61 57 55 55 53 54 54 52 49 43 14 16 21 20 18 19 45 46 45 40 38 35 32 28 24 21 23
100 96 95 97 97 96 94 94 91 83 79 77 72 68 69 63 58 57 56 56 55 56 53 46 44 13 17 19 21 20 17 43 52 48 46 43 40 36 32 27 23 24
100 95 91 88 87 87 91 89 85 81 78 74 74 71 68 68 62 60 58 56 56 59 57 48 40 10 18 18 18 17 19 43 54 51 50 47 43 39 35 31 27 28
102 99 96 93 90 87 85 84 83 83 77 73 72 68 67 65 63 61 55 53 55 57 61 53 36 14 21 19 14 13 22 51 53 52 51 48 45 41 38 33 29 29
108 104 101 99 96 92 88 86 83 82 83 81 81 77 71 70 64 61 58 56 52 55 60 56 39 21 20 20 15 6 29 54 53 54 52 48 46 45 43 35 29 26
110 109 105 103 100 97 93 90 91 88 85 85 83 78 75 67 65 59 57 56 52 51 57 55 46 23 20 19 15 1 32 54 54 55 55 53 46 46 47 43 35 25
112 111 109 106 102 99 97 94 91 86 79 75 83 83 75 70 72 69 62 57 55 52 44 57 51 30 22 22 17 3 11 52 56 54 53 52 52 46 46 48 42 35
112 110 108 105 101 99 99 98 92 90 89 84 83 82 80 78 73 73 70 62 57 55 38 50 53 38 26 25 22 12 8 52 52 59 54 47 49 51 47 44 43 40
111 109 105 104 104 102 99 97 99 97 89 87 84 83 85 82 78 74 71 65 56 53 49 45 53 49 31 29 27 23 9 32 51 56 53 53 49 47 46 44 41 40